owner,sensor,date,latitude,longitude,vertical_datum,sea_water_practical_salinity,qcFlag 
DISL,ioos:station:DISL:CATA:1,2019-05-01T00:00:00Z,30.3085,-88.1395,2.5,1.8,11111222 
DISL,ioos:station:DISL:CATA:1,2019-05-01T00:30:00Z,30.3085,-88.1395,2.456,1.74,11111222 
DISL,ioos:station:DISL:CATA:1,2019-05-01T01:00:00Z,30.3085,-88.1395,2.5,1.7,11111222 
DISL,ioos:station:DISL:CATA:1,2019-05-01T01:30:00Z,30.3085,-88.1395,2.492,1.7,11111222 
DISL,ioos:station:DISL:CATA:1,2019-05-01T02:00:00Z,30.3085,-88.1395,2.5,1.7,11111222 
DISL,ioos:station:DISL:CATA:1,2019-05-01T02:30:00Z,30.3085,-88.1395,2.497,1.59,11111222 
DISL,ioos:station:DISL:CATA:1,2019-05-01T03:00:00Z,30.3085,-88.1395,2.5,1.6,11111222 
DISL,ioos:station:DISL:CATA:1,2019-05-01T03:30:00Z,30.3085,-88.1395,2.512,1.53,11111222 
DISL,ioos:station:DISL:CATA:1,2019-05-01T04:00:00Z,30.3085,-88.1395,2.5,1.5,11111222 
DISL,ioos:station:DISL:CATA:1,2019-05-01T04:30:00Z,30.3085,-88.1395,2.534,1.49,11111222 
DISL,ioos:station:DISL:CATA:1,2019-05-01T05:00:00Z,30.3085,-88.1395,2.5,1.5,11111222 
DISL,ioos:station:DISL:CATA:1,2019-05-01T05:30:00Z,30.3085,-88.1395,2.5,1.5,11111222 
DISL,ioos:station:DISL:CATA:1,2019-05-01T06:00:00Z,30.3085,-88.1395,2.52,1.47,11111222 
DISL,ioos:station:DISL:CATA:1,2019-05-01T06:30:00Z,30.3085,-88.1395,2.508,1.47,11111222 
DISL,ioos:station:DISL:CATA:1,2019-05-01T07:00:00Z,30.3085,-88.1395,2.5,1.5,11111222 
DISL,ioos:station:DISL:CATA:1,2019-05-01T07:30:00Z,30.3085,-88.1395,2.476,1.51,11111222 
DISL,ioos:station:DISL:CATA:1,2019-05-01T08:00:00Z,30.3085,-88.1395,2.5,1.5,11111222 
DISL,ioos:station:DISL:CATA:1,2019-05-01T08:30:00Z,30.3085,-88.1395,2.437,1.55,11111222 
DISL,ioos:station:DISL:CATA:1,2019-05-01T09:00:00Z,30.3085,-88.1395,2.4,1.6,11111222 
DISL,ioos:station:DISL:CATA:1,2019-05-01T09:30:00Z,30.3085,-88.1395,2.409,1.61,11111222 
DISL,ioos:station:DISL:CATA:1,2019-05-01T10:00:00Z,30.3085,-88.1395,2.4,1.6,11111222 
DISL,ioos:station:DISL:CATA:1,2019-05-01T10:30:00Z,30.3085,-88.1395,2.411,1.6,11111222 
DISL,ioos:station:DISL:CATA:1,2019-05-01T11:00:00Z,30.3085,-88.1395,2.4,1.6,11111222 
DISL,ioos:station:DISL:CATA:1,2019-05-01T11:30:00Z,30.3085,-88.1395,2.431,1.58,11111222 
DISL,ioos:station:DISL:CATA:1,2019-05-01T12:00:00Z,30.3085,-88.1395,2.4,1.6,11111222 
DISL,ioos:station:DISL:CATA:1,2019-05-01T12:30:00Z,30.3085,-88.1395,2.449,1.54,11111222 
DISL,ioos:station:DISL:CATA:1,2019-05-01T13:00:00Z,30.3085,-88.1395,2.5,1.5,11111222 
DISL,ioos:station:DISL:CATA:1,2019-05-01T13:30:00Z,30.3085,-88.1395,2.448,1.5,11111222 
DISL,ioos:station:DISL:CATA:1,2019-05-01T14:00:00Z,30.3085,-88.1395,2.5,1.5,11111222 
DISL,ioos:station:DISL:CATA:1,2019-05-01T14:30:00Z,30.3085,-88.1395,2.471,1.49,11111222 
DISL,ioos:station:DISL:CATA:1,2019-05-01T15:00:00Z,30.3085,-88.1395,2.5,1.5,11111222 
DISL,ioos:station:DISL:CATA:1,2019-05-01T15:30:00Z,30.3085,-88.1395,2.483,1.48,11111222 
DISL,ioos:station:DISL:CATA:1,2019-05-01T16:00:00Z,30.3085,-88.1395,2.5,1.5,11111222 
DISL,ioos:station:DISL:CATA:1,2019-05-01T16:30:00Z,30.3085,-88.1395,2.487,1.46,11111222 
DISL,ioos:station:DISL:CATA:1,2019-05-01T17:00:00Z,30.3085,-88.1395,2.5,1.3,11111222 
DISL,ioos:station:DISL:CATA:1,2019-05-01T17:30:00Z,30.3085,-88.1395,2.478,1.29,11111222 
DISL,ioos:station:DISL:CATA:1,2019-05-01T18:00:00Z,30.3085,-88.1395,2.5,1.3,11111222 
DISL,ioos:station:DISL:CATA:1,2019-05-01T18:30:00Z,30.3085,-88.1395,2.457,1.27,11111222 
DISL,ioos:station:DISL:CATA:1,2019-05-01T19:00:00Z,30.3085,-88.1395,2.4,1.3,11111222 
DISL,ioos:station:DISL:CATA:1,2019-05-01T19:30:00Z,30.3085,-88.1395,2.432,1.26,11111222 
DISL,ioos:station:DISL:CATA:1,2019-05-01T20:00:00Z,30.3085,-88.1395,2.4,1.3,11111222 
DISL,ioos:station:DISL:CATA:1,2019-05-01T20:30:00Z,30.3085,-88.1395,2.404,1.27,11111222 
DISL,ioos:station:DISL:CATA:1,2019-05-01T21:00:00Z,30.3085,-88.1395,2.4,1.3,11111222 
DISL,ioos:station:DISL:CATA:1,2019-05-01T21:30:00Z,30.3085,-88.1395,2.376,1.31,11111222 
DISL,ioos:station:DISL:CATA:1,2019-05-01T22:00:00Z,30.3085,-88.1395,2.4,1.3,11111222 
DISL,ioos:station:DISL:CATA:1,2019-05-01T22:30:00Z,30.3085,-88.1395,2.399,1.33,11111222 
DISL,ioos:station:DISL:CATA:1,2019-05-01T23:00:00Z,30.3085,-88.1395,2.4,1.3,11111222 
DISL,ioos:station:DISL:CATA:1,2019-05-01T23:30:00Z,30.3085,-88.1395,2.417,1.33,11111222 
DISL,ioos:station:DISL:CATA:1,2019-05-02T00:00:00Z,30.3085,-88.1395,2.4,1.3,11111222 
DISL,ioos:station:DISL:CATA:1,2019-05-02T00:30:00Z,30.3085,-88.1395,2.442,1.33,11111222 
DISL,ioos:station:DISL:CATA:1,2019-05-02T01:00:00Z,30.3085,-88.1395,2.4,1.3,11111222 
DISL,ioos:station:DISL:CATA:1,2019-05-02T01:30:00Z,30.3085,-88.1395,2.458,1.3,11111222 
DISL,ioos:station:DISL:CATA:1,2019-05-02T02:00:00Z,30.3085,-88.1395,2.5,1.3,11111222 
DISL,ioos:station:DISL:CATA:1,2019-05-02T02:30:00Z,30.3085,-88.1395,2.482,1.28,11111222 
DISL,ioos:station:DISL:CATA:1,2019-05-02T03:00:00Z,30.3085,-88.1395,2.5,1.2,11111222 
DISL,ioos:station:DISL:CATA:1,2019-05-02T03:30:00Z,30.3085,-88.1395,2.495,1.21,11111222 
DISL,ioos:station:DISL:CATA:1,2019-05-02T04:00:00Z,30.3085,-88.1395,2.5,1.2,11111222 
DISL,ioos:station:DISL:CATA:1,2019-05-02T04:30:00Z,30.3085,-88.1395,2.509,1.28,11111222 
DISL,ioos:station:DISL:CATA:1,2019-05-02T05:00:00Z,30.3085,-88.1395,2.5,1.3,11111222 
DISL,ioos:station:DISL:CATA:1,2019-05-02T05:30:00Z,30.3085,-88.1395,2.537,1.35,11111222 
DISL,ioos:station:DISL:CATA:1,2019-05-02T06:30:00Z,30.3085,-88.1395,2.528,1.46,11111222 
DISL,ioos:station:DISL:CATA:1,2019-05-02T07:00:00Z,30.3085,-88.1395,2.5,1.5,11111222 
DISL,ioos:station:DISL:CATA:1,2019-05-02T07:30:00Z,30.3085,-88.1395,2.491,1.44,11111222 
DISL,ioos:station:DISL:CATA:1,2019-05-02T08:00:00Z,30.3085,-88.1395,2.5,1.3,11111222 
DISL,ioos:station:DISL:CATA:1,2019-05-02T08:30:00Z,30.3085,-88.1395,2.466,1.24,11111222 
DISL,ioos:station:DISL:CATA:1,2019-05-02T09:00:00Z,30.3085,-88.1395,2.5,1.3,11111222 
DISL,ioos:station:DISL:CATA:1,2019-05-02T09:30:00Z,30.3085,-88.1395,2.451,1.29,11111222 
DISL,ioos:station:DISL:CATA:1,2019-05-02T10:00:00Z,30.3085,-88.1395,2.4,1.3,11111222 
DISL,ioos:station:DISL:CATA:1,2019-05-02T10:30:00Z,30.3085,-88.1395,2.443,1.29,11111222 
DISL,ioos:station:DISL:CATA:1,2019-05-02T11:00:00Z,30.3085,-88.1395,2.4,1.3,11111222 
DISL,ioos:station:DISL:CATA:1,2019-05-02T11:30:00Z,30.3085,-88.1395,2.457,1.29,11111222 
DISL,ioos:station:DISL:CATA:1,2019-05-02T12:00:00Z,30.3085,-88.1395,2.5,1.3,11111222 
DISL,ioos:station:DISL:CATA:1,2019-05-02T12:30:00Z,30.3085,-88.1395,2.48,1.24,11111222 
DISL,ioos:station:DISL:CATA:1,2019-05-02T13:00:00Z,30.3085,-88.1395,2.5,1.2,11111222 
DISL,ioos:station:DISL:CATA:1,2019-05-02T13:30:00Z,30.3085,-88.1395,2.51,1.23,11111222 
DISL,ioos:station:DISL:CATA:1,2019-05-02T14:00:00Z,30.3085,-88.1395,2.5,1.3,11111222 
DISL,ioos:station:DISL:CATA:1,2019-05-02T14:30:00Z,30.3085,-88.1395,2.522,1.25,11111222 
DISL,ioos:station:DISL:CATA:1,2019-05-02T15:00:00Z,30.3085,-88.1395,2.5,1.2,11111222 
DISL,ioos:station:DISL:CATA:1,2019-05-02T15:30:00Z,30.3085,-88.1395,2.523,1.22,11111222 
DISL,ioos:station:DISL:CATA:1,2019-05-02T16:00:00Z,30.3085,-88.1395,2.5,1.2,11111222 
DISL,ioos:station:DISL:CATA:1,2019-05-02T16:30:00Z,30.3085,-88.1395,2.527,1.22,11111222 
DISL,ioos:station:DISL:CATA:1,2019-05-02T17:00:00Z,30.3085,-88.1395,2.5,1.2,11111222 
DISL,ioos:station:DISL:CATA:1,2019-05-02T17:30:00Z,30.3085,-88.1395,2.523,1.2,11111222 
DISL,ioos:station:DISL:CATA:1,2019-05-02T18:00:00Z,30.3085,-88.1395,2.5,1.2,11111222 
DISL,ioos:station:DISL:CATA:1,2019-05-02T18:30:00Z,30.3085,-88.1395,2.498,1.18,11111222 
DISL,ioos:station:DISL:CATA:1,2019-05-02T19:00:00Z,30.3085,-88.1395,2.5,1.2,11111222 
DISL,ioos:station:DISL:CATA:1,2019-05-02T19:30:00Z,30.3085,-88.1395,2.44,1.17,11111222 
DISL,ioos:station:DISL:CATA:1,2019-05-02T20:00:00Z,30.3085,-88.1395,2.4,1.2,11111222 
DISL,ioos:station:DISL:CATA:1,2019-05-02T20:30:00Z,30.3085,-88.1395,2.382,1.18,11111222 
DISL,ioos:station:DISL:CATA:1,2019-05-02T21:00:00Z,30.3085,-88.1395,2.4,1.2,11111222 
DISL,ioos:station:DISL:CATA:1,2019-05-02T21:30:00Z,30.3085,-88.1395,2.317,1.2,11111222 
DISL,ioos:station:DISL:CATA:1,2019-05-02T22:00:00Z,30.3085,-88.1395,2.3,1.2,11111222 
DISL,ioos:station:DISL:CATA:1,2019-05-02T22:30:00Z,30.3085,-88.1395,2.285,1.22,11111222 
DISL,ioos:station:DISL:CATA:1,2019-05-02T23:00:00Z,30.3085,-88.1395,2.3,1.2,11111222 
DISL,ioos:station:DISL:CATA:1,2019-05-02T23:30:00Z,30.3085,-88.1395,2.343,1.22,11111222 
DISL,ioos:station:DISL:CATA:1,2019-05-03T00:00:00Z,30.3085,-88.1395,2.4,1.2,11111222 
DISL,ioos:station:DISL:CATA:1,2019-05-03T00:30:00Z,30.3085,-88.1395,2.397,1.22,11111222 
DISL,ioos:station:DISL:CATA:1,2019-05-03T01:00:00Z,30.3085,-88.1395,2.4,1.2,11111222 
DISL,ioos:station:DISL:CATA:1,2019-05-03T01:30:00Z,30.3085,-88.1395,2.427,1.22,11111222 
DISL,ioos:station:DISL:CATA:1,2019-05-03T02:00:00Z,30.3085,-88.1395,2.4,1.2,11111222 
DISL,ioos:station:DISL:CATA:1,2019-05-03T02:30:00Z,30.3085,-88.1395,2.439,1.22,11111222 
DISL,ioos:station:DISL:CATA:1,2019-05-03T03:00:00Z,30.3085,-88.1395,2.5,1.2,11111222 
DISL,ioos:station:DISL:CATA:1,2019-05-03T03:30:00Z,30.3085,-88.1395,2.461,1.22,11111222 
DISL,ioos:station:DISL:CATA:1,2019-05-03T04:00:00Z,30.3085,-88.1395,2.5,1.2,11111222 
DISL,ioos:station:DISL:CATA:1,2019-05-03T04:30:00Z,30.3085,-88.1395,2.468,1.2,11111222 
DISL,ioos:station:DISL:CATA:1,2019-05-03T05:00:00Z,30.3085,-88.1395,2.5,1.2,11111222 
DISL,ioos:station:DISL:CATA:1,2019-05-03T05:30:00Z,30.3085,-88.1395,2.49,1.21,11111222 
DISL,ioos:station:DISL:CATA:1,2019-05-03T06:30:00Z,30.3085,-88.1395,2.497,1.21,11111222 
DISL,ioos:station:DISL:CATA:1,2019-05-03T07:00:00Z,30.3085,-88.1395,2.5,1.2,11111222 
DISL,ioos:station:DISL:CATA:1,2019-05-03T07:30:00Z,30.3085,-88.1395,2.486,1.21,11111222 
DISL,ioos:station:DISL:CATA:1,2019-05-03T08:00:00Z,30.3085,-88.1395,2.5,1.2,11111222 
DISL,ioos:station:DISL:CATA:1,2019-05-03T08:30:00Z,30.3085,-88.1395,2.464,1.28,11111222 
DISL,ioos:station:DISL:CATA:1,2019-05-03T09:00:00Z,30.3085,-88.1395,2.5,1.3,11111222 
DISL,ioos:station:DISL:CATA:1,2019-05-03T09:30:00Z,30.3085,-88.1395,2.469,1.24,11111222 
DISL,ioos:station:DISL:CATA:1,2019-05-03T10:00:00Z,30.3085,-88.1395,2.5,1.2,11111222 
DISL,ioos:station:DISL:CATA:1,2019-05-03T10:30:00Z,30.3085,-88.1395,2.488,1.67,11111222 
DISL,ioos:station:DISL:CATA:1,2019-05-03T11:00:00Z,30.3085,-88.1395,2.5,3.9,11111222 
DISL,ioos:station:DISL:CATA:1,2019-05-03T11:30:00Z,30.3085,-88.1395,2.51,3.98,11111222 
DISL,ioos:station:DISL:CATA:1,2019-05-03T12:00:00Z,30.3085,-88.1395,2.5,3.7,11111222 
DISL,ioos:station:DISL:CATA:1,2019-05-03T12:30:00Z,30.3085,-88.1395,2.52,12.34,11111222 
DISL,ioos:station:DISL:CATA:1,2019-05-03T13:00:00Z,30.3085,-88.1395,2.5,11.1,11111222 
DISL,ioos:station:DISL:CATA:1,2019-05-03T13:30:00Z,30.3085,-88.1395,2.534,12.96,11111222 
DISL,ioos:station:DISL:CATA:1,2019-05-03T14:00:00Z,30.3085,-88.1395,2.6,12.8,11111222 
DISL,ioos:station:DISL:CATA:1,2019-05-03T14:30:00Z,30.3085,-88.1395,2.557,8.48,11111222 
DISL,ioos:station:DISL:CATA:1,2019-05-03T15:00:00Z,30.3085,-88.1395,2.6,10.4,11111222 
DISL,ioos:station:DISL:CATA:1,2019-05-03T15:30:00Z,30.3085,-88.1395,2.548,13.04,11111222 
DISL,ioos:station:DISL:CATA:1,2019-05-03T16:00:00Z,30.3085,-88.1395,2.5,14.4,11111222 
DISL,ioos:station:DISL:CATA:1,2019-05-03T16:30:00Z,30.3085,-88.1395,2.534,14.61,11111222 
DISL,ioos:station:DISL:CATA:1,2019-05-03T17:00:00Z,30.3085,-88.1395,2.5,14.7,11111222 
DISL,ioos:station:DISL:CATA:1,2019-05-03T17:30:00Z,30.3085,-88.1395,2.531,14.69,11111222 
DISL,ioos:station:DISL:CATA:1,2019-05-03T18:00:00Z,30.3085,-88.1395,2.5,14.5,11111222 
DISL,ioos:station:DISL:CATA:1,2019-05-03T18:30:00Z,30.3085,-88.1395,2.511,14.07,11111222 
DISL,ioos:station:DISL:CATA:1,2019-05-03T19:00:00Z,30.3085,-88.1395,2.5,13.8,11111222 
DISL,ioos:station:DISL:CATA:1,2019-05-03T19:30:00Z,30.3085,-88.1395,2.466,13.91,11111222 
DISL,ioos:station:DISL:CATA:1,2019-05-03T20:00:00Z,30.3085,-88.1395,2.4,14.5,11111222 
DISL,ioos:station:DISL:CATA:1,2019-05-03T20:30:00Z,30.3085,-88.1395,2.403,14.69,11111222 
DISL,ioos:station:DISL:CATA:1,2019-05-03T21:00:00Z,30.3085,-88.1395,2.4,14.4,11111222 
DISL,ioos:station:DISL:CATA:1,2019-05-03T21:30:00Z,30.3085,-88.1395,2.362,3.84,11111222 
DISL,ioos:station:DISL:CATA:1,2019-05-03T22:00:00Z,30.3085,-88.1395,2.3,1.9,11111222 
DISL,ioos:station:DISL:CATA:1,2019-05-03T22:30:00Z,30.3085,-88.1395,2.325,1.33,11111222 
DISL,ioos:station:DISL:CATA:1,2019-05-03T23:00:00Z,30.3085,-88.1395,2.3,1.2,11111222 
DISL,ioos:station:DISL:CATA:1,2019-05-03T23:30:00Z,30.3085,-88.1395,2.326,1.2,11111222 
DISL,ioos:station:DISL:CATA:1,2019-05-04T00:00:00Z,30.3085,-88.1395,2.3,1.2,11111222 
DISL,ioos:station:DISL:CATA:1,2019-05-04T00:30:00Z,30.3085,-88.1395,2.335,1.18,11111222 
DISL,ioos:station:DISL:CATA:1,2019-05-04T01:00:00Z,30.3085,-88.1395,2.3,1.2,11111222 
DISL,ioos:station:DISL:CATA:1,2019-05-04T01:30:00Z,30.3085,-88.1395,2.347,1.2,11111222 
DISL,ioos:station:DISL:CATA:1,2019-05-04T02:00:00Z,30.3085,-88.1395,2.4,1.2,11111222 
DISL,ioos:station:DISL:CATA:1,2019-05-04T02:30:00Z,30.3085,-88.1395,2.366,1.22,11111222 
DISL,ioos:station:DISL:CATA:1,2019-05-04T03:00:00Z,30.3085,-88.1395,2.4,1.2,11111222 
DISL,ioos:station:DISL:CATA:1,2019-05-04T03:30:00Z,30.3085,-88.1395,2.392,1.22,11111222 
DISL,ioos:station:DISL:CATA:1,2019-05-04T04:00:00Z,30.3085,-88.1395,2.4,1.3,11111222 
DISL,ioos:station:DISL:CATA:1,2019-05-04T04:30:00Z,30.3085,-88.1395,2.415,1.43,11111222 
DISL,ioos:station:DISL:CATA:1,2019-05-04T05:00:00Z,30.3085,-88.1395,2.4,1.5,11111222 
DISL,ioos:station:DISL:CATA:1,2019-05-04T05:30:00Z,30.3085,-88.1395,2.447,1.58,11111222 
DISL,ioos:station:DISL:CATA:1,2019-05-04T06:30:00Z,30.3085,-88.1395,2.478,1.75,11111222 
DISL,ioos:station:DISL:CATA:1,2019-05-04T07:00:00Z,30.3085,-88.1395,2.5,2.0,11111222 
DISL,ioos:station:DISL:CATA:1,2019-05-04T07:30:00Z,30.3085,-88.1395,2.503,2.5,11111222 
DISL,ioos:station:DISL:CATA:1,2019-05-04T08:00:00Z,30.3085,-88.1395,2.5,2.7,11111222 
DISL,ioos:station:DISL:CATA:1,2019-05-04T08:30:00Z,30.3085,-88.1395,2.513,2.58,11111222 
DISL,ioos:station:DISL:CATA:1,2019-05-04T09:00:00Z,30.3085,-88.1395,2.5,2.6,11111222 
DISL,ioos:station:DISL:CATA:1,2019-05-04T09:30:00Z,30.3085,-88.1395,2.515,2.81,11111222 
DISL,ioos:station:DISL:CATA:1,2019-05-04T10:00:00Z,30.3085,-88.1395,2.5,3.0,11111222 
DISL,ioos:station:DISL:CATA:1,2019-05-04T10:30:00Z,30.3085,-88.1395,2.503,2.98,11111222 
DISL,ioos:station:DISL:CATA:1,2019-05-04T11:00:00Z,30.3085,-88.1395,2.5,2.9,11111222 
DISL,ioos:station:DISL:CATA:1,2019-05-04T11:30:00Z,30.3085,-88.1395,2.523,2.9,11111222 
DISL,ioos:station:DISL:CATA:1,2019-05-04T12:00:00Z,30.3085,-88.1395,2.5,2.8,11111222 
DISL,ioos:station:DISL:CATA:1,2019-05-04T12:30:00Z,30.3085,-88.1395,2.565,2.72,11111222 
DISL,ioos:station:DISL:CATA:1,2019-05-04T13:00:00Z,30.3085,-88.1395,2.6,2.7,11111222 
DISL,ioos:station:DISL:CATA:1,2019-05-04T13:30:00Z,30.3085,-88.1395,2.622,2.43,11111222 
DISL,ioos:station:DISL:CATA:1,2019-05-04T14:00:00Z,30.3085,-88.1395,2.6,2.4,11111222 
DISL,ioos:station:DISL:CATA:1,2019-05-04T14:30:00Z,30.3085,-88.1395,2.629,2.77,11111222 
DISL,ioos:station:DISL:CATA:1,2019-05-04T15:00:00Z,30.3085,-88.1395,2.6,3.0,11111222 
DISL,ioos:station:DISL:CATA:1,2019-05-04T15:30:00Z,30.3085,-88.1395,2.635,3.23,11111222 
DISL,ioos:station:DISL:CATA:1,2019-05-04T16:00:00Z,30.3085,-88.1395,2.6,3.5,11111222 
DISL,ioos:station:DISL:CATA:1,2019-05-04T16:30:00Z,30.3085,-88.1395,2.621,4.36,11111222 
DISL,ioos:station:DISL:CATA:1,2019-05-04T17:00:00Z,30.3085,-88.1395,2.6,5.0,11111222 
DISL,ioos:station:DISL:CATA:1,2019-05-04T17:30:00Z,30.3085,-88.1395,2.597,5.08,11111222 
DISL,ioos:station:DISL:CATA:1,2019-05-04T18:00:00Z,30.3085,-88.1395,2.6,5.1,11111222 
DISL,ioos:station:DISL:CATA:1,2019-05-04T18:30:00Z,30.3085,-88.1395,2.558,5.11,11111222 
DISL,ioos:station:DISL:CATA:1,2019-05-04T19:00:00Z,30.3085,-88.1395,2.6,5.0,11111222 
DISL,ioos:station:DISL:CATA:1,2019-05-04T19:30:00Z,30.3085,-88.1395,2.533,3.27,11111222 
DISL,ioos:station:DISL:CATA:1,2019-05-04T20:00:00Z,30.3085,-88.1395,2.6,5.0,11111222 
DISL,ioos:station:DISL:CATA:1,2019-05-04T20:30:00Z,30.3085,-88.1395,2.566,4.85,11111222 
DISL,ioos:station:DISL:CATA:1,2019-05-04T21:00:00Z,30.3085,-88.1395,2.5,4.8,11111222 
DISL,ioos:station:DISL:CATA:1,2019-05-04T21:30:00Z,30.3085,-88.1395,2.466,4.75,11111222 
DISL,ioos:station:DISL:CATA:1,2019-05-04T22:00:00Z,30.3085,-88.1395,2.4,4.5,11111222 
DISL,ioos:station:DISL:CATA:1,2019-05-04T22:30:00Z,30.3085,-88.1395,2.408,4.57,11111222 
DISL,ioos:station:DISL:CATA:1,2019-05-04T23:00:00Z,30.3085,-88.1395,2.4,4.5,11111222 
DISL,ioos:station:DISL:CATA:1,2019-05-04T23:30:00Z,30.3085,-88.1395,2.336,3.64,11111222 
DISL,ioos:station:DISL:CATA:1,2019-05-05T00:00:00Z,30.3085,-88.1395,2.3,3.4,11111222 
DISL,ioos:station:DISL:CATA:1,2019-05-05T00:30:00Z,30.3085,-88.1395,2.346,3.83,11111222 
DISL,ioos:station:DISL:CATA:1,2019-05-05T01:00:00Z,30.3085,-88.1395,2.3,5.0,11111222 
DISL,ioos:station:DISL:CATA:1,2019-05-05T01:30:00Z,30.3085,-88.1395,2.36,5.47,11111222 
DISL,ioos:station:DISL:CATA:1,2019-05-05T02:00:00Z,30.3085,-88.1395,2.4,6.1,11111222 
DISL,ioos:station:DISL:CATA:1,2019-05-05T02:30:00Z,30.3085,-88.1395,2.37,3.05,11111222 
DISL,ioos:station:DISL:CATA:1,2019-05-05T03:00:00Z,30.3085,-88.1395,2.4,2.9,11111222 
DISL,ioos:station:DISL:CATA:1,2019-05-05T03:30:00Z,30.3085,-88.1395,2.369,2.82,11111222 
DISL,ioos:station:DISL:CATA:1,2019-05-05T04:00:00Z,30.3085,-88.1395,2.4,3.5,11111222 
DISL,ioos:station:DISL:CATA:1,2019-05-05T04:30:00Z,30.3085,-88.1395,2.405,4.15,11111222 
DISL,ioos:station:DISL:CATA:1,2019-05-05T05:00:00Z,30.3085,-88.1395,2.4,3.5,11111222 
DISL,ioos:station:DISL:CATA:1,2019-05-05T05:30:00Z,30.3085,-88.1395,2.435,3.55,11111222 
DISL,ioos:station:DISL:CATA:1,2019-05-05T06:30:00Z,30.3085,-88.1395,2.462,4.72,11111222 
DISL,ioos:station:DISL:CATA:1,2019-05-05T07:00:00Z,30.3085,-88.1395,2.5,5.0,11111222 
DISL,ioos:station:DISL:CATA:1,2019-05-05T07:30:00Z,30.3085,-88.1395,2.453,4.76,11111222 
DISL,ioos:station:DISL:CATA:1,2019-05-05T08:00:00Z,30.3085,-88.1395,2.5,4.5,11111222 
DISL,ioos:station:DISL:CATA:1,2019-05-05T08:30:00Z,30.3085,-88.1395,2.464,5.17,11111222 
DISL,ioos:station:DISL:CATA:1,2019-05-05T09:00:00Z,30.3085,-88.1395,2.5,5.4,11111222 
DISL,ioos:station:DISL:CATA:1,2019-05-05T09:30:00Z,30.3085,-88.1395,2.521,5.44,11111222 
DISL,ioos:station:DISL:CATA:1,2019-05-05T10:00:00Z,30.3085,-88.1395,2.5,5.5,11111222 
DISL,ioos:station:DISL:CATA:1,2019-05-05T10:30:00Z,30.3085,-88.1395,2.523,5.38,11111222 
DISL,ioos:station:DISL:CATA:1,2019-05-05T11:00:00Z,30.3085,-88.1395,2.5,5.1,11111222 
DISL,ioos:station:DISL:CATA:1,2019-05-05T11:30:00Z,30.3085,-88.1395,2.498,5.3,11111222 
DISL,ioos:station:DISL:CATA:1,2019-05-05T12:00:00Z,30.3085,-88.1395,2.5,5.3,11111222 
DISL,ioos:station:DISL:CATA:1,2019-05-05T12:30:00Z,30.3085,-88.1395,2.545,5.48,11111222 
DISL,ioos:station:DISL:CATA:1,2019-05-05T13:00:00Z,30.3085,-88.1395,2.6,6.3,11111222 
DISL,ioos:station:DISL:CATA:1,2019-05-05T13:30:00Z,30.3085,-88.1395,2.564,5.84,11111222 
DISL,ioos:station:DISL:CATA:1,2019-05-05T14:00:00Z,30.3085,-88.1395,2.6,6.0,11111222 
DISL,ioos:station:DISL:CATA:1,2019-05-05T14:30:00Z,30.3085,-88.1395,2.598,6.29,11111222 
DISL,ioos:station:DISL:CATA:1,2019-05-05T15:00:00Z,30.3085,-88.1395,2.6,6.2,11111222 
DISL,ioos:station:DISL:CATA:1,2019-05-05T15:30:00Z,30.3085,-88.1395,2.626,5.92,11111222 
DISL,ioos:station:DISL:CATA:1,2019-05-05T16:00:00Z,30.3085,-88.1395,2.6,6.4,11111222 
DISL,ioos:station:DISL:CATA:1,2019-05-05T16:30:00Z,30.3085,-88.1395,2.622,6.89,11111222 
DISL,ioos:station:DISL:CATA:1,2019-05-05T17:00:00Z,30.3085,-88.1395,2.6,7.1,11111222 
DISL,ioos:station:DISL:CATA:1,2019-05-05T17:30:00Z,30.3085,-88.1395,2.587,6.92,11111222 
DISL,ioos:station:DISL:CATA:1,2019-05-05T18:00:00Z,30.3085,-88.1395,2.6,8.3,11111222 
DISL,ioos:station:DISL:CATA:1,2019-05-05T18:30:00Z,30.3085,-88.1395,2.551,8.17,11111222 
DISL,ioos:station:DISL:CATA:1,2019-05-05T19:00:00Z,30.3085,-88.1395,2.5,8.2,11111222 
DISL,ioos:station:DISL:CATA:1,2019-05-05T19:30:00Z,30.3085,-88.1395,2.528,8.06,11111222 
DISL,ioos:station:DISL:CATA:1,2019-05-05T20:00:00Z,30.3085,-88.1395,2.5,7.3,11111222 
DISL,ioos:station:DISL:CATA:1,2019-05-05T20:30:00Z,30.3085,-88.1395,2.473,5.33,11111222 
DISL,ioos:station:DISL:CATA:1,2019-05-05T21:00:00Z,30.3085,-88.1395,2.4,4.7,11111222 
DISL,ioos:station:DISL:CATA:1,2019-05-05T21:30:00Z,30.3085,-88.1395,2.4,3.98,11111222 
DISL,ioos:station:DISL:CATA:1,2019-05-05T22:00:00Z,30.3085,-88.1395,2.4,3.7,11111222 
DISL,ioos:station:DISL:CATA:1,2019-05-05T22:30:00Z,30.3085,-88.1395,2.316,3.48,11111222 
DISL,ioos:station:DISL:CATA:1,2019-05-05T23:00:00Z,30.3085,-88.1395,2.3,3.3,11111222 
DISL,ioos:station:DISL:CATA:1,2019-05-05T23:30:00Z,30.3085,-88.1395,2.237,3.2,11111222 
DISL,ioos:station:DISL:CATA:1,2019-05-06T00:00:00Z,30.3085,-88.1395,2.2,3.1,11111222 
DISL,ioos:station:DISL:CATA:1,2019-05-06T00:30:00Z,30.3085,-88.1395,2.198,3.07,11111222 
DISL,ioos:station:DISL:CATA:1,2019-05-06T01:00:00Z,30.3085,-88.1395,2.2,3.0,11111222 
DISL,ioos:station:DISL:CATA:1,2019-05-06T01:30:00Z,30.3085,-88.1395,2.17,2.77,11111222 
DISL,ioos:station:DISL:CATA:1,2019-05-06T02:00:00Z,30.3085,-88.1395,2.2,2.7,11111222 
DISL,ioos:station:DISL:CATA:1,2019-05-06T02:30:00Z,30.3085,-88.1395,2.177,2.55,11111222 
DISL,ioos:station:DISL:CATA:1,2019-05-06T03:00:00Z,30.3085,-88.1395,2.2,2.5,11111222 
DISL,ioos:station:DISL:CATA:1,2019-05-06T03:30:00Z,30.3085,-88.1395,2.181,2.46,11111222 
DISL,ioos:station:DISL:CATA:1,2019-05-06T04:00:00Z,30.3085,-88.1395,2.2,2.4,11111222 
DISL,ioos:station:DISL:CATA:1,2019-05-06T04:30:00Z,30.3085,-88.1395,2.204,2.43,11111222 
DISL,ioos:station:DISL:CATA:1,2019-05-06T05:00:00Z,30.3085,-88.1395,2.2,2.4,11111222 
DISL,ioos:station:DISL:CATA:1,2019-05-06T05:30:00Z,30.3085,-88.1395,2.243,2.41,11111222 
DISL,ioos:station:DISL:CATA:1,2019-05-06T06:30:00Z,30.3085,-88.1395,2.295,2.45,11111222 
DISL,ioos:station:DISL:CATA:1,2019-05-06T07:00:00Z,30.3085,-88.1395,2.3,2.5,11111222 
DISL,ioos:station:DISL:CATA:1,2019-05-06T07:30:00Z,30.3085,-88.1395,2.355,2.42,11111222 
DISL,ioos:station:DISL:CATA:1,2019-05-06T08:00:00Z,30.3085,-88.1395,2.4,2.4,11111222 
DISL,ioos:station:DISL:CATA:1,2019-05-06T08:30:00Z,30.3085,-88.1395,2.389,2.44,11111222 
DISL,ioos:station:DISL:CATA:1,2019-05-06T09:00:00Z,30.3085,-88.1395,2.4,2.5,11111222 
DISL,ioos:station:DISL:CATA:1,2019-05-06T09:30:00Z,30.3085,-88.1395,2.416,2.48,11111222 
DISL,ioos:station:DISL:CATA:1,2019-05-06T10:00:00Z,30.3085,-88.1395,2.4,2.5,11111222 
DISL,ioos:station:DISL:CATA:1,2019-05-06T10:30:00Z,30.3085,-88.1395,2.419,4.22,11111222 
DISL,ioos:station:DISL:CATA:1,2019-05-06T11:00:00Z,30.3085,-88.1395,2.4,3.3,11111222 
DISL,ioos:station:DISL:CATA:1,2019-05-06T11:30:00Z,30.3085,-88.1395,2.451,2.75,11111222 
DISL,ioos:station:DISL:CATA:1,2019-05-06T12:00:00Z,30.3085,-88.1395,2.5,2.6,11111222 
DISL,ioos:station:DISL:CATA:1,2019-05-06T12:30:00Z,30.3085,-88.1395,2.503,2.49,11111222 
DISL,ioos:station:DISL:CATA:1,2019-05-06T13:00:00Z,30.3085,-88.1395,2.6,2.5,11111222 
DISL,ioos:station:DISL:CATA:1,2019-05-06T13:30:00Z,30.3085,-88.1395,2.597,2.48,11111222 
DISL,ioos:station:DISL:CATA:1,2019-05-06T14:00:00Z,30.3085,-88.1395,2.6,2.6,11111222 
DISL,ioos:station:DISL:CATA:1,2019-05-06T14:30:00Z,30.3085,-88.1395,2.626,2.5,11111222 
DISL,ioos:station:DISL:CATA:1,2019-05-06T15:00:00Z,30.3085,-88.1395,2.6,2.7,11111222 
DISL,ioos:station:DISL:CATA:1,2019-05-06T15:30:00Z,30.3085,-88.1395,2.62,4.99,11111222 
DISL,ioos:station:DISL:CATA:1,2019-05-06T16:00:00Z,30.3085,-88.1395,2.6,5.1,11111222 
DISL,ioos:station:DISL:CATA:1,2019-05-06T16:30:00Z,30.3085,-88.1395,2.634,5.33,11111222 
DISL,ioos:station:DISL:CATA:1,2019-05-06T17:00:00Z,30.3085,-88.1395,2.6,5.6,11111222 
DISL,ioos:station:DISL:CATA:1,2019-05-06T17:30:00Z,30.3085,-88.1395,2.652,6.47,11111222 
DISL,ioos:station:DISL:CATA:1,2019-05-06T18:00:00Z,30.3085,-88.1395,2.6,6.8,11111222 
DISL,ioos:station:DISL:CATA:1,2019-05-06T18:30:00Z,30.3085,-88.1395,2.641,6.92,11111222 